| time (UTC) | temp F | wind direction | speed MPH | gust MPH | rain 1hr in | rain 24hr in | rain mn in | humidity % | barometer mb |
| 20260510175003 | 75 | 200 | 2.0 | 9.0 | 0.00 | 0.21 | 0.00 | 50 | 1009.5 |
| 20260510174504 | 75 | 205 | 2.0 | 7.0 | 0.00 | 0.21 | 0.00 | 52 | 1009.5 |
| 20260510174003 | 74 | 195 | 2.0 | 7.0 | 0.00 | 0.22 | 0.00 | 53 | 1009.4 |
| 20260510173503 | 74 | 189 | 1.0 | 6.0 | 0.00 | 0.22 | 0.00 | 52 | 1009.5 |
| 20260510173003 | 74 | 178 | 1.0 | 5.0 | 0.00 | 0.22 | 0.00 | 56 | 1009.5 |
| 20260510172503 | 74 | 199 | 1.0 | 5.0 | 0.00 | 0.22 | 0.00 | 55 | 1009.6 |
| 20260510172004 | 73 | 199 | 2.0 | 6.0 | 0.00 | 0.22 | 0.00 | 55 | 1009.7 |
| 20260510171504 | 73 | 226 | 3.0 | 7.0 | 0.00 | 0.22 | 0.00 | 55 | 1009.7 |
| 20260510171003 | 73 | 228 | 3.0 | 7.0 | 0.00 | 0.22 | 0.00 | 56 | 1009.7 |
| 20260510170503 | 73 | 209 | 2.0 | 7.0 | 0.00 | 0.22 | 0.00 | 55 | 1009.8 |
| 20260510170003 | 73 | 250 | 2.0 | 6.0 | 0.00 | 0.22 | 0.00 | 56 | 1009.8 |
| 20260510165504 | 73 | 271 | 2.0 | 7.0 | 0.00 | 0.22 | 0.00 | 55 | 1009.9 |
| 20260510165004 | 72 | 255 | 1.0 | 7.0 | 0.00 | 0.22 | 0.00 | 58 | 1009.8 |
| 20260510164503 | 71 | 152 | 1.0 | 5.0 | 0.00 | 0.22 | 0.00 | 61 | 1010.0 |
| 20260510164004 | 71 | 183 | 2.0 | 7.0 | 0.00 | 0.22 | 0.00 | 59 | 1010.1 |
| 20260510163504 | 71 | 191 | 2.0 | 7.0 | 0.00 | 0.22 | 0.00 | 59 | 1010.1 |
| 20260510163003 | 71 | 207 | 2.0 | 7.0 | 0.00 | 0.22 | 0.00 | 59 | 1010.1 |
| 20260510162503 | 71 | 225 | 2.0 | 7.0 | 0.00 | 0.22 | 0.00 | 60 | 1010.2 |
| 20260510162003 | 71 | 226 | 1.0 | 7.0 | 0.00 | 0.22 | 0.00 | 60 | 1010.2 |
| 20260510161503 | 70 | 278 | 2.0 | 7.0 | 0.00 | 0.22 | 0.00 | 61 | 1010.2 |
| 20260510161004 | 70 | 243 | 2.0 | 7.0 | 0.00 | 0.22 | 0.00 | 61 | 1010.2 |
| 20260510160504 | 70 | 199 | 2.0 | 7.0 | 0.00 | 0.22 | 0.00 | 62 | 1010.2 |
| 20260510160003 | 69 | 193 | 2.0 | 7.0 | 0.00 | 0.22 | 0.00 | 61 | 1010.2 |
| 20260510155503 | 69 | 192 | 2.0 | 7.0 | 0.00 | 0.22 | 0.00 | 63 | 1010.1 |
| 20260510155004 | 69 | 202 | 3.0 | 8.0 | 0.00 | 0.22 | 0.00 | 64 | 1010.1 |
| 20260510154503 | 68 | 204 | 3.0 | 8.0 | 0.00 | 0.22 | 0.00 | 66 | 1010.3 |
| 20260510154003 | 67 | 193 | 2.0 | 8.0 | 0.00 | 0.22 | 0.00 | 68 | 1010.3 |
| 20260510153504 | 67 | 184 | 2.0 | 6.0 | 0.00 | 0.22 | 0.00 | 68 | 1010.4 |
| 20260510153004 | 67 | 152 | 1.0 | 6.0 | 0.00 | 0.22 | 0.00 | 69 | 1010.4 |
| 20260510152503 | 66 | 107 | 2.0 | 5.0 | 0.00 | 0.22 | 0.00 | 69 | 1010.4 |
| 20260510152003 | 66 | 150 | 2.0 | 7.0 | 0.00 | 0.22 | 0.00 | 71 | 1010.3 |
| 20260510151504 | 65 | 179 | 2.0 | 7.0 | 0.00 | 0.22 | 0.00 | 72 | 1010.3 |
| 20260510151003 | 65 | 176 | 1.0 | 7.0 | 0.00 | 0.22 | 0.00 | 72 | 1010.4 |
| 20260510150503 | 65 | 166 | 1.0 | 7.0 | 0.00 | 0.22 | 0.00 | 74 | 1010.5 |
| 20260510150004 | 64 | 179 | 1.0 | 3.0 | 0.00 | 0.22 | 0.00 | 76 | 1010.7 |
| 20260510145503 | 63 | 184 | 1.0 | 4.0 | 0.00 | 0.22 | 0.00 | 76 | 1010.8 |
| 20260510145003 | 62 | 174 | 1.0 | 4.0 | 0.00 | 0.22 | 0.00 | 78 | 1010.8 |
| 20260510144503 | 62 | 186 | 1.0 | 5.0 | 0.00 | 0.22 | 0.00 | 78 | 1010.8 |
| 20260510144003 | 62 | 190 | 1.0 | 5.0 | 0.00 | 0.22 | 0.00 | 79 | 1010.7 |
| 20260510143504 | 62 | 192 | 1.0 | 3.0 | 0.00 | 0.22 | 0.00 | 80 | 1010.7 |
| 20260510143003 | 61 | 189 | 2.0 | 7.0 | 0.00 | 0.22 | 0.00 | 81 | 1010.7 |
| 20260510142503 | 61 | 194 | 2.0 | 7.0 | 0.00 | 0.22 | 0.00 | 82 | 1010.7 |
| 20260510142004 | 60 | 202 | 1.0 | 5.0 | 0.00 | 0.22 | 0.00 | 84 | 1010.7 |
| 20260510141503 | 60 | 196 | 1.0 | 5.0 | 0.00 | 0.22 | 0.00 | 85 | 1010.7 |
| 20260510141003 | 59 | 193 | 2.0 | 5.0 | 0.00 | 0.22 | 0.00 | 86 | 1010.7 |
| 20260510140503 | 59 | 190 | 1.0 | 6.0 | 0.00 | 0.22 | 0.00 | 86 | 1010.7 |
| 20260510140004 | 59 | 189 | 1.0 | 6.0 | 0.00 | 0.22 | 0.00 | 88 | 1010.6 |
| 20260510135503 | 58 | 178 | 1.0 | 6.0 | 0.00 | 0.22 | 0.00 | 90 | 1010.6 |
| 20260510135003 | 58 | 141 | 0.0 | 3.0 | 0.00 | 0.22 | 0.00 | 91 | 1010.6 |
| 20260510134503 | 58 | 103 | 0.0 | 2.0 | 0.00 | 0.22 | 0.00 | 92 | 1010.6 |
| 20260510134003 | 58 | 98 | 0.0 | 2.0 | 0.00 | 0.22 | 0.00 | 93 | 1010.6 |
| 20260510133504 | 57 | 96 | 0.0 | 2.0 | 0.00 | 0.22 | 0.00 | 93 | 1010.7 |
| 20260510133003 | 57 | 96 | 0.0 | 2.0 | 0.00 | 0.22 | 0.00 | 94 | 1010.6 |
| 20260510132503 | 56 | 96 | 0.0 | 1.0 | 0.00 | 0.22 | 0.00 | 94 | 1010.6 |
| 20260510132004 | 56 | 95 | 0.0 | 2.0 | 0.00 | 0.22 | 0.00 | 94 | 1010.6 |
| 20260510131503 | 56 | 81 | 1.0 | 5.0 | 0.00 | 0.22 | 0.00 | 95 | 1010.5 |
| 20260510131003 | 56 | 67 | 1.0 | 5.0 | 0.00 | 0.22 | 0.00 | 95 | 1010.3 |
| 20260510130503 | 56 | 34 | 0.0 | 3.0 | 0.00 | 0.22 | 0.00 | 95 | 1010.3 |
| 20260510130004 | 56 | 21 | 0.0 | 3.0 | 0.00 | 0.22 | 0.00 | 95 | 1010.3 |
| 20260510125503 | 56 | 12 | 0.0 | 3.0 | 0.00 | 0.22 | 0.00 | 96 | 1010.3 |
| 20260510125003 | 56 | 11 | 0.0 | 2.0 | 0.00 | 0.22 | 0.00 | 96 | 1010.2 |
| 20260510124503 | 55 | 11 | 0.0 | 1.0 | 0.00 | 0.22 | 0.00 | 96 | 1010.2 |
| 20260510124003 | 55 | 0 | 0.0 | 0.0 | 0.00 | 0.22 | 0.00 | 96 | 1010.3 |
| 20260510123503 | 55 | 12 | 0.0 | 1.0 | 0.00 | 0.22 | 0.00 | 96 | 1010.2 |
| 20260510123003 | 55 | 12 | 0.0 | 1.0 | 0.00 | 0.22 | 0.00 | 96 | 1010.2 |
| 20260510122503 | 55 | 0 | 0.0 | 0.0 | 0.00 | 0.22 | 0.00 | 96 | 1010.1 |
| 20260510122004 | 54 | 0 | 0.0 | 0.0 | 0.00 | 0.22 | 0.00 | 96 | 1010.0 |
| 20260510121003 | 54 | 12 | 0.0 | 1.0 | 0.00 | 0.22 | 0.00 | 96 | 1010.0 |
| 20260510120004 | 54 | 11 | 0.0 | 1.0 | 0.00 | 0.22 | 0.00 | 96 | 1009.8 |
| 20260510115504 | 54 | 11 | 0.0 | 1.0 | 0.00 | 0.22 | 0.00 | 96 | 1009.7 |
| 20260510115003 | 54 | 12 | 0.0 | 1.0 | 0.00 | 0.22 | 0.00 | 96 | 1009.7 |
| 20260510114003 | 54 | 12 | 0.0 | 1.0 | 0.00 | 0.22 | 0.00 | 96 | 1009.7 |
| 20260510113503 | 54 | 12 | 0.0 | 1.0 | 0.00 | 0.22 | 0.00 | 96 | 1009.7 |
| 20260510113004 | 54 | 12 | 0.0 | 1.0 | 0.00 | 0.22 | 0.00 | 96 | 1009.8 |
| 20260510112504 | 54 | 12 | 0.0 | 1.0 | 0.00 | 0.22 | 0.00 | 96 | 1009.7 |
| 20260510112003 | 54 | 0 | 0.0 | 0.0 | 0.00 | 0.22 | 0.00 | 96 | 1009.5 |
| 20260510111503 | 54 | 0 | 0.0 | 0.0 | 0.00 | 0.22 | 0.00 | 96 | 1009.3 |
| 20260510111003 | 54 | 12 | 0.0 | 1.0 | 0.00 | 0.22 | 0.00 | 96 | 1009.3 |
| 20260510110004 | 53 | 0 | 0.0 | 0.0 | 0.00 | 0.22 | 0.00 | 96 | 1009.2 |
| 20260510105003 | 53 | 0 | 0.0 | 0.0 | 0.00 | 0.22 | 0.00 | 96 | 1009.1 |
| 20260510104503 | 53 | 0 | 0.0 | 0.0 | 0.00 | 0.22 | 0.00 | 96 | 1009.1 |
| 20260510104003 | 53 | 0 | 0.0 | 0.0 | 0.00 | 0.22 | 0.00 | 96 | 1009.1 |
| 20260510103504 | 53 | 0 | 0.0 | 0.0 | 0.00 | 0.22 | 0.00 | 96 | 1009.1 |
| 20260510103004 | 53 | 0 | 0.0 | 0.0 | 0.00 | 0.22 | 0.00 | 96 | 1009.2 |
| 20260510102503 | 53 | 0 | 0.0 | 0.0 | 0.00 | 0.22 | 0.00 | 96 | 1009.2 |
| 20260510102003 | 53 | 0 | 0.0 | 0.0 | 0.00 | 0.22 | 0.00 | 96 | 1009.2 |
| 20260510101503 | 53 | 0 | 0.0 | 0.0 | 0.00 | 0.22 | 0.00 | 96 | 1009.2 |
| 20260510101004 | 53 | 0 | 0.0 | 0.0 | 0.00 | 0.22 | 0.00 | 96 | 1009.2 |
| 20260510100504 | 53 | 0 | 0.0 | 0.0 | 0.00 | 0.22 | 0.00 | 96 | 1009.2 |
| 20260510100004 | 53 | 0 | 0.0 | 0.0 | 0.00 | 0.22 | 0.00 | 96 | 1009.2 |
| 20260510095504 | 53 | 0 | 0.0 | 0.0 | 0.00 | 0.22 | 0.00 | 96 | 1009.3 |
| 20260510095004 | 53 | 0 | 0.0 | 0.0 | 0.00 | 0.22 | 0.00 | 96 | 1009.3 |
| 20260510094503 | 53 | 0 | 0.0 | 0.0 | 0.00 | 0.22 | 0.00 | 96 | 1009.2 |
| 20260510094003 | 53 | 0 | 0.0 | 0.0 | 0.00 | 0.22 | 0.00 | 96 | 1009.2 |
| 20260510093503 | 53 | 0 | 0.0 | 0.0 | 0.00 | 0.22 | 0.00 | 96 | 1009.1 |
| 20260510093004 | 53 | 0 | 0.0 | 0.0 | 0.00 | 0.22 | 0.00 | 96 | 1009.2 |
| 20260510092504 | 53 | 0 | 0.0 | 0.0 | 0.00 | 0.22 | 0.00 | 96 | 1009.2 |
| 20260510092003 | 53 | 12 | 0.0 | 1.0 | 0.00 | 0.22 | 0.00 | 96 | 1009.3 |
| 20260510091503 | 53 | 12 | 0.0 | 1.0 | 0.00 | 0.22 | 0.00 | 96 | 1009.4 |
| 20260510091003 | 53 | 0 | 0.0 | 0.0 | 0.00 | 0.22 | 0.00 | 96 | 1009.4 |
| 20260510090504 | 53 | 0 | 0.0 | 0.0 | 0.00 | 0.22 | 0.00 | 96 | 1009.6 |
| 20260510090004 | 53 | 0 | 0.0 | 0.0 | 0.00 | 0.22 | 0.00 | 96 | 1009.5 |
| 20260510085503 | 53 | 0 | 0.0 | 0.0 | 0.00 | 0.22 | 0.00 | 96 | 1009.6 |
| 20260510085003 | 53 | 0 | 0.0 | 0.0 | 0.00 | 0.22 | 0.00 | 95 | 1009.7 |
| 20260510084503 | 53 | 11 | 0.0 | 1.0 | 0.00 | 0.22 | 0.00 | 95 | 1009.6 |
| 20260510084004 | 53 | 11 | 0.0 | 2.0 | 0.00 | 0.22 | 0.00 | 95 | 1009.6 |
| 20260510083504 | 53 | 11 | 0.0 | 2.0 | 0.00 | 0.22 | 0.00 | 95 | 1009.6 |
| 20260510082503 | 53 | 11 | 0.0 | 3.0 | 0.00 | 0.22 | 0.00 | 95 | 1009.5 |
| 20260510082003 | 53 | 7 | 0.0 | 3.0 | 0.00 | 0.22 | 0.00 | 95 | 1009.5 |
| 20260510081504 | 53 | 1 | 1.0 | 5.0 | 0.00 | 0.22 | 0.00 | 95 | 1009.5 |
| 20260510081004 | 53 | 358 | 1.0 | 5.0 | 0.00 | 0.22 | 0.00 | 95 | 1009.3 |
| 20260510080503 | 53 | 6 | 1.0 | 4.0 | 0.00 | 0.22 | 0.00 | 95 | 1009.3 |
| 20260510080003 | 53 | 96 | 1.0 | 4.0 | 0.00 | 0.22 | 0.00 | 96 | 1009.2 |
| 20260510074004 | 53 | 0 | 0.0 | 0.0 | 0.00 | 0.22 | 0.00 | 96 | 1008.5 |
| 20260510073503 | 53 | 0 | 0.0 | 0.0 | 0.00 | 0.22 | 0.00 | 96 | 1008.6 |
| 20260510073003 | 53 | 0 | 0.0 | 0.0 | 0.00 | 0.22 | 0.00 | 95 | 1008.6 |
| 20260510072003 | 53 | 0 | 0.0 | 0.0 | 0.00 | 0.22 | 0.00 | 95 | 1008.6 |
| 20260510071503 | 53 | 0 | 0.0 | 0.0 | 0.00 | 0.22 | 0.00 | 95 | 1008.6 |
| 20260510071004 | 53 | 0 | 0.0 | 0.0 | 0.00 | 0.22 | 0.00 | 95 | 1008.6 |
| 20260510070503 | 53 | 151 | 0.0 | 2.0 | 0.00 | 0.22 | 0.00 | 95 | 1008.7 |
| 20260510070004 | 53 | 151 | 0.0 | 2.0 | 0.00 | 0.22 | 0.00 | 95 | 1008.7 |
| 20260510065504 | 54 | 151 | 0.0 | 2.0 | 0.00 | 0.22 | 0.00 | 95 | 1008.7 |
| 20260510065004 | 53 | 0 | 0.0 | 0.0 | 0.00 | 0.22 | 0.00 | 95 | 1008.7 |
| 20260510064503 | 53 | 0 | 0.0 | 0.0 | 0.00 | 0.22 | 0.00 | 95 | 1008.7 |
| 20260510064003 | 53 | 0 | 0.0 | 0.0 | 0.00 | 0.22 | 0.00 | 95 | 1008.8 |
| 20260510063503 | 53 | 0 | 0.0 | 0.0 | 0.00 | 0.22 | 0.00 | 95 | 1008.7 |
| 20260510063003 | 53 | 0 | 0.0 | 0.0 | 0.00 | 0.22 | 0.00 | 95 | 1008.7 |
| 20260510062504 | 53 | 150 | 0.0 | 2.0 | 0.00 | 0.22 | 0.00 | 95 | 1008.7 |
| 20260510062003 | 53 | 150 | 0.0 | 2.0 | 0.00 | 0.22 | 0.00 | 95 | 1008.6 |
| 20260510061003 | 53 | 0 | 0.0 | 0.0 | 0.00 | 0.22 | 0.00 | 95 | 1008.5 |
| 20260510060503 | 53 | 0 | 0.0 | 0.0 | 0.00 | 0.22 | 0.00 | 95 | 1008.6 |
| 20260510060004 | 53 | 0 | 0.0 | 0.0 | 0.00 | 0.22 | 0.00 | 95 | 1008.5 |
| 20260510055503 | 52 | 0 | 0.0 | 0.0 | 0.00 | 0.22 | 0.00 | 95 | 1008.4 |
| 20260510055003 | 52 | 0 | 0.0 | 0.0 | 0.00 | 0.22 | 0.00 | 95 | 1008.4 |
| 20260510054503 | 52 | 0 | 0.0 | 0.0 | 0.00 | 0.22 | 0.00 | 95 | 1008.4 |
| 20260510054003 | 52 | 0 | 0.0 | 0.0 | 0.00 | 0.22 | 0.00 | 95 | 1008.3 |
| 20260510053004 | 52 | 0 | 0.0 | 0.0 | 0.00 | 0.22 | 0.00 | 95 | 1008.3 |
| 20260510052503 | 52 | 0 | 0.0 | 0.0 | 0.00 | 0.22 | 0.00 | 95 | 1008.5 |
| 20260510052003 | 53 | 0 | 0.0 | 0.0 | 0.00 | 0.22 | 0.00 | 95 | 1008.5 |
| 20260510051503 | 53 | 0 | 0.0 | 0.0 | 0.00 | 0.22 | 0.00 | 95 | 1008.5 |
| 20260510051003 | 53 | 0 | 0.0 | 0.0 | 0.00 | 0.22 | 0.00 | 95 | 1008.6 |
| 20260510050503 | 53 | 0 | 0.0 | 0.0 | 0.00 | 0.22 | 0.00 | 95 | 1008.6 |
| 20260510050004 | 53 | 0 | 0.0 | 0.0 | 0.00 | 0.22 | 0.00 | 95 | 1008.6 |
| 20260510045503 | 53 | 0 | 0.0 | 0.0 | 0.00 | 0.22 | 0.00 | 95 | 1008.6 |
| 20260510045003 | 53 | 0 | 0.0 | 0.0 | 0.00 | 0.22 | 0.00 | 95 | 1008.7 |
| 20260510044503 | 53 | 0 | 0.0 | 0.0 | 0.00 | 0.22 | 0.00 | 95 | 1008.6 |
| 20260510044004 | 53 | 0 | 0.0 | 0.0 | 0.00 | 0.22 | 0.00 | 95 | 1008.6 |
| 20260510043504 | 53 | 0 | 0.0 | 0.0 | 0.00 | 0.22 | 0.00 | 95 | 1008.7 |
| 20260510042503 | 54 | 0 | 0.0 | 0.0 | 0.00 | 0.22 | 0.00 | 95 | 1008.6 |
| 20260510042003 | 53 | 0 | 0.0 | 0.0 | 0.00 | 0.22 | 0.00 | 95 | 1008.7 |
| 20260510041504 | 53 | 0 | 0.0 | 0.0 | 0.00 | 0.22 | 0.00 | 95 | 1008.6 |
| 20260510041004 | 53 | 0 | 0.0 | 0.0 | 0.00 | 0.22 | 0.00 | 95 | 1008.6 |
| 20260510040503 | 53 | 0 | 0.0 | 0.0 | 0.00 | 0.22 | 0.00 | 95 | 1008.6 |
| 20260510035503 | 53 | 0 | 0.0 | 0.0 | 0.00 | 0.22 | 0.22 | 95 | 1008.5 |
| 20260510035003 | 53 | 0 | 0.0 | 0.0 | 0.00 | 0.22 | 0.22 | 95 | 1008.5 |
| 20260510034503 | 53 | 0 | 0.0 | 0.0 | 0.00 | 0.22 | 0.22 | 95 | 1008.5 |
| 20260510034004 | 53 | 0 | 0.0 | 0.0 | 0.00 | 0.22 | 0.22 | 94 | 1008.3 |
| 20260510033503 | 53 | 0 | 0.0 | 0.0 | 0.00 | 0.22 | 0.22 | 94 | 1008.4 |
| 20260510033003 | 53 | 0 | 0.0 | 0.0 | 0.00 | 0.22 | 0.22 | 94 | 1008.4 |
| 20260510032503 | 53 | 0 | 0.0 | 0.0 | 0.00 | 0.22 | 0.22 | 94 | 1008.3 |
| 20260510032003 | 53 | 0 | 0.0 | 0.0 | 0.00 | 0.22 | 0.22 | 94 | 1008.2 |
| 20260510031503 | 52 | 0 | 0.0 | 0.0 | 0.00 | 0.22 | 0.22 | 94 | 1008.2 |
| 20260510031004 | 52 | 0 | 0.0 | 0.0 | 0.00 | 0.22 | 0.22 | 94 | 1008.2 |
| 20260510030503 | 52 | 0 | 0.0 | 0.0 | 0.00 | 0.22 | 0.22 | 94 | 1008.2 |
| 20260510025503 | 52 | 0 | 0.0 | 0.0 | 0.00 | 0.22 | 0.22 | 94 | 1008.2 |
| 20260510025004 | 52 | 0 | 0.0 | 0.0 | 0.00 | 0.22 | 0.22 | 94 | 1008.2 |
| 20260510024504 | 52 | 0 | 0.0 | 0.0 | 0.00 | 0.22 | 0.22 | 94 | 1008.3 |
| 20260510024003 | 51 | 0 | 0.0 | 0.0 | 0.00 | 0.22 | 0.22 | 93 | 1008.4 |
| 20260510023503 | 51 | 0 | 0.0 | 0.0 | 0.00 | 0.22 | 0.22 | 93 | 1008.3 |
| 20260510023003 | 52 | 0 | 0.0 | 0.0 | 0.00 | 0.22 | 0.22 | 93 | 1008.5 |
| 20260510022504 | 52 | 0 | 0.0 | 0.0 | 0.00 | 0.22 | 0.22 | 93 | 1008.3 |
| 20260510022004 | 52 | 0 | 0.0 | 0.0 | 0.00 | 0.22 | 0.22 | 93 | 1008.4 |
| 20260510021503 | 52 | 0 | 0.0 | 0.0 | 0.00 | 0.22 | 0.22 | 93 | 1008.3 |
| 20260510021003 | 52 | 0 | 0.0 | 0.0 | 0.00 | 0.22 | 0.22 | 93 | 1008.3 |
| 20260510020503 | 52 | 0 | 0.0 | 0.0 | 0.00 | 0.22 | 0.22 | 93 | 1008.2 |
| 20260510015504 | 52 | 0 | 0.0 | 0.0 | 0.00 | 0.22 | 0.22 | 93 | 1008.3 |
| 20260510015003 | 53 | 0 | 0.0 | 0.0 | 0.00 | 0.22 | 0.22 | 93 | 1008.3 |
| 20260510014503 | 53 | 0 | 0.0 | 0.0 | 0.00 | 0.22 | 0.22 | 93 | 1008.2 |
| 20260510014003 | 53 | 0 | 0.0 | 0.0 | 0.00 | 0.22 | 0.22 | 93 | 1008.2 |
| 20260510013004 | 53 | 0 | 0.0 | 0.0 | 0.00 | 0.22 | 0.22 | 93 | 1008.3 |
| 20260510012504 | 53 | 0 | 0.0 | 0.0 | 0.00 | 0.22 | 0.22 | 93 | 1008.2 |
| 20260510012003 | 53 | 0 | 0.0 | 0.0 | 0.00 | 0.22 | 0.22 | 93 | 1008.1 |
| 20260510011503 | 53 | 0 | 0.0 | 0.0 | 0.00 | 0.22 | 0.22 | 93 | 1008.1 |
| 20260510011003 | 53 | 0 | 0.0 | 0.0 | 0.00 | 0.22 | 0.22 | 92 | 1008.0 |
| 20260510010504 | 53 | 0 | 0.0 | 0.0 | 0.00 | 0.22 | 0.22 | 92 | 1007.8 |
| 20260510010004 | 53 | 0 | 0.0 | 0.0 | 0.00 | 0.22 | 0.22 | 92 | 1007.7 |
| 20260510005503 | 53 | 0 | 0.0 | 0.0 | 0.00 | 0.22 | 0.22 | 92 | 1007.8 |
| 20260510005003 | 53 | 0 | 0.0 | 0.0 | 0.00 | 0.22 | 0.22 | 92 | 1007.8 |
| 20260510004504 | 54 | 0 | 0.0 | 0.0 | 0.00 | 0.22 | 0.22 | 92 | 1007.7 |
| 20260510004004 | 54 | 0 | 0.0 | 0.0 | 0.00 | 0.22 | 0.22 | 92 | 1007.6 |
| 20260510003004 | 54 | 0 | 0.0 | 0.0 | 0.00 | 0.22 | 0.22 | 92 | 1007.7 |
| 20260510002503 | 54 | 0 | 0.0 | 0.0 | 0.00 | 0.22 | 0.22 | 92 | 1007.7 |
| 20260510002003 | 54 | 0 | 0.0 | 0.0 | 0.00 | 0.22 | 0.22 | 92 | 1007.7 |
| 20260510001504 | 54 | 0 | 0.0 | 0.0 | 0.00 | 0.22 | 0.22 | 92 | 1007.8 |
| 20260510001004 | 55 | 0 | 0.0 | 0.0 | 0.00 | 0.22 | 0.22 | 92 | 1007.7 |
| 20260510000503 | 55 | 0 | 0.0 | 0.0 | 0.00 | 0.22 | 0.22 | 92 | 1007.7 |
| 20260510000003 | 55 | 0 | 0.0 | 0.0 | 0.00 | 0.22 | 0.22 | 92 | 1007.6 |
| 20260509235504 | 55 | 0 | 0.0 | 0.0 | 0.00 | 0.22 | 0.22 | 92 | 1007.6 |
| 20260509235003 | 55 | 0 | 0.0 | 0.0 | 0.00 | 0.22 | 0.22 | 91 | 1007.5 |
| 20260509234503 | 56 | 0 | 0.0 | 0.0 | 0.00 | 0.22 | 0.22 | 92 | 1007.5 |
| 20260509234003 | 56 | 0 | 0.0 | 0.0 | 0.00 | 0.22 | 0.22 | 91 | 1007.3 |
| 20260509233503 | 56 | 0 | 0.0 | 0.0 | 0.00 | 0.22 | 0.22 | 91 | 1007.4 |
| 20260509232504 | 56 | 151 | 0.0 | 1.0 | 0.01 | 0.22 | 0.22 | 91 | 1007.4 |
| 20260509231504 | 56 | 150 | 0.0 | 1.0 | 0.01 | 0.22 | 0.22 | 92 | 1007.2 |
| 20260509231003 | 56 | 150 | 0.0 | 2.0 | 0.01 | 0.22 | 0.22 | 92 | 1007.2 |
| 20260509230503 | 56 | 150 | 0.0 | 3.0 | 0.01 | 0.22 | 0.22 | 91 | 1007.4 |
| 20260509230004 | 56 | 152 | 0.0 | 3.0 | 0.01 | 0.22 | 0.22 | 91 | 1007.6 |
| 20260509225504 | 56 | 157 | 0.0 | 3.0 | 0.01 | 0.22 | 0.22 | 91 | 1007.8 |
| 20260509225003 | 56 | 170 | 0.0 | 2.0 | 0.01 | 0.22 | 0.22 | 91 | 1007.8 |
| 20260509224503 | 56 | 171 | 0.0 | 2.0 | 0.02 | 0.22 | 0.22 | 91 | 1007.9 |
| 20260509224003 | 56 | 171 | 0.0 | 2.0 | 0.02 | 0.22 | 0.22 | 91 | 1007.8 |
| 20260509223504 | 56 | 171 | 0.0 | 2.0 | 0.04 | 0.22 | 0.22 | 91 | 1007.7 |
| 20260509223004 | 56 | 171 | 0.0 | 2.0 | 0.04 | 0.21 | 0.21 | 91 | 1007.7 |
| 20260509222003 | 56 | 171 | 0.0 | 3.0 | 0.07 | 0.21 | 0.21 | 91 | 1007.7 |
| 20260509221503 | 56 | 170 | 0.0 | 2.0 | 0.08 | 0.21 | 0.21 | 91 | 1007.7 |
| 20260509221003 | 56 | 171 | 0.0 | 2.0 | 0.09 | 0.21 | 0.21 | 91 | 1007.7 |
| 20260509220504 | 56 | 173 | 0.0 | 1.0 | 0.10 | 0.21 | 0.21 | 90 | 1007.8 |
| 20260509220004 | 56 | 173 | 0.0 | 1.0 | 0.10 | 0.21 | 0.21 | 90 | 1008.1 |
| 20260509215503 | 56 | 173 | 0.0 | 1.0 | 0.12 | 0.21 | 0.21 | 90 | 1008.2 |
| 20260509215003 | 56 | 174 | 0.0 | 1.0 | 0.13 | 0.21 | 0.21 | 89 | 1008.1 |
| 20260509214504 | 56 | 174 | 0.0 | 1.0 | 0.12 | 0.20 | 0.20 | 89 | 1008.0 |
| 20260509213503 | 56 | 0 | 0.0 | 0.0 | 0.10 | 0.18 | 0.18 | 89 | 1008.2 |
| 20260509212503 | 56 | 0 | 0.0 | 0.0 | 0.08 | 0.15 | 0.15 | 88 | 1008.1 |
| 20260509212004 | 57 | 0 | 0.0 | 0.0 | 0.07 | 0.14 | 0.14 | 88 | 1008.1 |
| 20260509211504 | 57 | 173 | 0.0 | 1.0 | 0.06 | 0.13 | 0.13 | 88 | 1008.1 |
| 20260509211003 | 57 | 173 | 0.0 | 1.0 | 0.06 | 0.12 | 0.12 | 87 | 1008.1 |
| 20260509210503 | 57 | 173 | 0.0 | 1.0 | 0.05 | 0.11 | 0.11 | 87 | 1008.0 |
| 20260509210004 | 57 | 173 | 0.0 | 1.0 | 0.05 | 0.11 | 0.11 | 86 | 1007.7 |
| 20260509205504 | 57 | 173 | 0.0 | 1.0 | 0.03 | 0.09 | 0.09 | 86 | 1008.1 |
| 20260509204503 | 57 | 173 | 0.0 | 1.0 | 0.02 | 0.08 | 0.08 | 85 | 1008.0 |
| 20260509204003 | 57 | 173 | 0.0 | 1.0 | 0.02 | 0.08 | 0.08 | 84 | 1008.2 |
| 20260509203503 | 57 | 176 | 0.0 | 3.0 | 0.02 | 0.08 | 0.08 | 84 | 1008.2 |
| 20260509202504 | 57 | 184 | 1.0 | 2.0 | 0.01 | 0.07 | 0.07 | 84 | 1008.2 |
| 20260509202004 | 58 | 185 | 1.0 | 2.0 | 0.01 | 0.07 | 0.07 | 84 | 1008.1 |
| 20260509201503 | 58 | 186 | 0.0 | 2.0 | 0.00 | 0.06 | 0.06 | 83 | 1008.2 |
| 20260509200503 | 58 | 186 | 0.0 | 2.0 | 0.00 | 0.06 | 0.06 | 82 | 1008.3 |
| 20260509195504 | 58 | 220 | 1.0 | 5.0 | 0.00 | 0.06 | 0.06 | 81 | 1008.2 |
| 20260509194503 | 58 | 335 | 1.0 | 5.0 | 0.00 | 0.06 | 0.06 | 81 | 1008.2 |
| 20260509193504 | 58 | 352 | 0.0 | 2.0 | 0.00 | 0.06 | 0.06 | 81 | 1008.2 |
| 20260509193003 | 58 | 0 | 0.0 | 0.0 | 0.01 | 0.06 | 0.06 | 82 | 1008.1 |
| 20260509192503 | 58 | 0 | 0.0 | 0.0 | 0.01 | 0.06 | 0.06 | 82 | 1008.2 |
| 20260509192003 | 58 | 0 | 0.0 | 0.0 | 0.01 | 0.06 | 0.06 | 82 | 1008.1 |
| 20260509190504 | 58 | 352 | 0.0 | 1.0 | 0.02 | 0.06 | 0.06 | 81 | 1008.1 |
| 20260509190004 | 58 | 352 | 0.0 | 3.0 | 0.04 | 0.06 | 0.06 | 81 | 1008.2 |
| 20260509185003 | 58 | 10 | 1.0 | 8.0 | 0.05 | 0.06 | 0.06 | 80 | 1008.1 |
| 20260509184503 | 58 | 2 | 2.0 | 8.0 | 0.06 | 0.06 | 0.06 | 80 | 1008.1 |
| 20260509184004 | 59 | 335 | 2.0 | 7.0 | 0.06 | 0.06 | 0.06 | 80 | 1008.2 |
| 20260509183003 | 59 | 356 | 2.0 | 6.0 | 0.05 | 0.05 | 0.05 | 78 | 1008.6 |
| 20260509182503 | 60 | 355 | 1.0 | 6.0 | 0.05 | 0.05 | 0.05 | 77 | 1008.7 |
| 20260509182003 | 60 | 314 | 1.0 | 7.0 | 0.05 | 0.05 | 0.05 | 77 | 1008.7 |
| 20260509181503 | 61 | 277 | 1.0 | 7.0 | 0.05 | 0.05 | 0.05 | 75 | 1008.6 |
| 20260509180504 | 62 | 246 | 1.0 | 6.0 | 0.04 | 0.04 | 0.04 | 71 | 1008.9 |
| 20260509180003 | 63 | 225 | 2.0 | 6.0 | 0.02 | 0.02 | 0.02 | 68 | 1008.7 |
| 20260509175504 | 63 | 229 | 1.0 | 5.0 | 0.01 | 0.01 | 0.01 | 65 | 1008.3 |